Volver al catálogo

CZ-6A DEB

ActivoPO
NORAD 55552·DEBRIS·🇨🇳 China

Lanzado Nov 11, 2022 desde Taiyuan Satellite Launch Center

Loading…

Próximos Pases (próximas 24 horas)

TLE

ActualizadoSource: Space-Track

Época: Sep 14, 2026, 04:02 UTC

1 55552U 22151ZA  26257.16871913  .00006703  00000-0  11152-2 0  9999
2 55552  98.6216 320.8877 0067506  26.5609 333.9028 14.68919554196582

Sigue CZ-6A DEB en tiempo real con AllMySat

Download on the App Store